Theta_e
287 288 288 289 289 290 290 290 290 290 290 290 290 289 290 290 291 291 291 292 292 292 291 291 291 292 292 292 293 293 292 292 292 292 293 293 294 294 294 295 295 295 296 296 295 295 295 295 295 295 294 294 293 293 292 292 292 291 291 291 291 291
287 287 287 288 288 288 289 289 289 288 289 289 289 289 289 289 290 290 290 291 291 291 290 290 291 291 291 291 291 291 291 291 291 291 291 292 292 292 292 293 293 294 294 294 295 294 294 294 294 294 294 293 292 292 291 291 291 290 290 290 290 291
287 287 289 289 289 289 289 289 288 288 288 287 287 286 287 287 289 289 289 289 289 289 289 289 289 289 290 290 291 289 290 290 291 291 291 291 291 292 291 291 292 292 292 293 293 293 293 293 293 293 293 292 291 291 291 291 290 289 289 289 289 289
289 289 289 290 290 290 290 290 290 289 289 289 287 287 287 287 287 288 288 289 288 288 288 288 289 289 289 288 289 289 289 289 290 290 290 290 291 291 291 291 291 292 292 292 292 292 292 292 292 292 292 291 291 290 291 291 290 289 289 289 288 289
288 287 288 288 289 289 289 289 288 288 288 288 288 287 287 288 288 288 288 288 287 287 288 288 287 287 287 287 288 287 288 288 289 289 289 289 290 291 291 290 290 290 290 290 291 291 291 292 292 292 291 291 290 290 290 290 289 289 288 288 288 288
290 287 287 288 288 289 289 289 288 288 288 288 287 287 287 288 288 288 288 288 287 288 287 287 287 286 285 286 287 286 287 287 288 288 288 289 289 288 289 290 290 290 290 289 289 290 290 290 291 291 291 290 289 289 289 289 289 289 288 288 288 288
286 286 287 287 287 288 289 289 288 288 288 288 287 286 287 287 288 287 288 287 287 287 287 287 286 286 286 286 286 286 287 286 286 287 287 287 287 288 288 289 289 289 289 289 289 289 289 289 290 290 290 290 289 289 289 289 289 288 288 288 288 288
286 286 286 286 286 287 287 288 288 288 288 287 287 286 286 286 287 286 287 286 286 286 286 287 287 286 285 285 286 287 287 286 286 286 286 286 286 287 287 288 288 288 288 288 288 288 288 289 289 289 289 289 289 289 289 289 288 288 288 288 288 288
285 286 286 286 286 286 286 287 287 287 287 287 287 287 286 286 286 286 285 286 285 285 285 286 286 286 286 286 285 286 287 287 287 286 285 285 285 285 286 286 286 287 287 287 287 287 287 287 288 288 289 289 289 289 288 288 288 288 288 287 287 287
285 285 285 285 286 286 286 286 287 287 287 286 287 287 286 286 285 285 285 285 285 285 285 285 286 286 286 286 286 286 286 286 286 286 286 286 285 285 285 285 285 285 286 286 287 287 287 287 286 287 287 288 288 288 288 287 287 287 287 287 287 287
284 285 285 285 285 285 285 286 286 287 287 287 286 286 286 286 285 284 284 284 284 284 284 285 285 286 286 285 285 285 286 286 286 285 285 285 285 286 285 285 285 284 285 285 286 286 287 286 286 286 286 286 286 287 287 287 287 286 286 286 286 287
284 285 285 285 285 285 285 285 285 286 286 286 286 286 286 285 284 283 283 283 283 284 284 284 284 284 284 284 284 284 285 285 286 285 284 284 284 285 285 285 285 284 284 284 284 285 286 286 287 287 288 288 286 286 286 286 286 286 286 286 286 286
285 285 285 285 285 285 285 285 286 286 286 286 286 285 285 285 283 283 283 282 283 283 283 283 283 283 283 283 283 282 283 285 285 284 284 284 284 283 283 284 284 285 285 285 284 284 285 285 286 288 290 290 290 288 286 286 286 286 286 286 285 285
284 284 284 284 285 285 285 285 285 285 285 285 285 285 285 284 283 282 282 282 283 283 282 282 282 282 282 282 281 281 282 283 284 283 283 282 282 282 282 282 282 283 284 284 285 285 285 285 286 288 289 290 290 289 287 286 286 285 285 285 285 285
284 284 284 285 285 285 285 285 285 284 285 285 285 285 284 283 282 282 282 282 282 282 282 282 281 281 281 281 281 280 280 281 282 282 281 281 281 281 280 280 281 282 283 283 284 284 284 284 286 287 288 288 289 289 289 287 286 286 285 285 285 285
284 285 285 285 286 286 286 286 285 285 286 285 285 284 283 283 282 282 281 281 281 281 281 281 281 280 280 281 280 279 279 279 280 281 281 280 279 279 279 279 279 280 282 283 283 283 283 284 285 286 287 287 288 288 288 286 286 286 286 286 285 285
284 284 285 285 285 285 286 285 285 285 284 284 283 283 282 282 281 281 281 280 281 281 281 280 280 280 280 280 279 278 277 278 278 279 279 278 278 277 277 277 277 279 280 281 282 282 282 283 285 286 286 287 287 288 288 286 286 286 286 286 286 286
284 284 284 286 285 285 285 284 284 283 282 283 282 281 281 281 281 280 280 280 280 280 280 280 279 279 279 279 278 277 276 277 277 277 278 277 276 276 276 276 277 278 278 279 280 281 281 282 284 285 286 287 287 287 286 285 285 285 285 285 286 286
285 285 285 284 284 283 283 283 282 281 281 280 279 279 279 279 279 279 280 279 279 279 279 279 278 278 278 278 277 276 275 275 275 276 277 275 274 274 274 274 275 276 277 278 279 279 280 281 283 285 285 286 286 286 284 284 284 284 284 285 285 286
285 284 283 282 282 282 282 282 281 280 279 278 278 278 278 278 278 278 278 278 278 278 278 278 278 277 277 277 275 275 275 275 275 275 275 273 272 272 272 273 274 275 276 277 277 278 279 279 281 284 284 285 285 285 283 283 283 283 284 284 285 286
282 282 282 281 280 280 280 280 279 278 277 276 276 276 276 276 276 277 277 277 277 277 277 277 277 276 276 275 274 274 273 273 273 274 273 272 272 271 272 272 272 273 274 274 275 277 277 278 280 283 283 284 284 284 283 283 282 282 282 283 283 285
281 280 280 279 279 280 279 278 278 276 275 275 275 274 274 274 275 276 275 275 276 276 275 275 274 274 274 273 273 273 272 273 272 272 271 271 271 270 270 271 271 270 271 272 273 274 275 275 276 279 282 283 284 285 283 283 282 281 281 282 283 283
279 278 278 278 278 278 277 276 275 274 273 273 272 272 273 273 274 273 273 274 274 274 273 273 273 272 272 272 271 271 271 271 271 270 269 269 269 269 269 269 269 269 269 270 270 271 272 274 275 277 280 282 283 284 284 282 281 281 281 282 282 283
278 277 277 277 276 275 274 274 272 271 271 270 270 271 272 272 272 271 271 271 271 271 271 270 270 270 269 270 270 269 269 269 269 269 268 268 268 267 267 267 267 267 268 269 269 270 271 273 275 275 278 281 283 284 284 282 281 282 281 281 281 282
275 275 274 274 273 273 272 271 269 269 269 268 269 270 270 269 269 268 268 268 268 267 266 266 266 266 267 267 267 267 267 267 267 267 267 266 266 266 265 266 266 266 266 267 269 270 271 273 275 278 278 281 282 284 284 284 283 284 283 281 280 281
273 272 271 271 271 271 270 269 267 267 266 266 268 267 267 266 266 265 265 264 264 263 263 263 263 264 264 264 264 264 264 264 265 265 265 265 265 265 264 265 265 266 266 266 267 269 271 272 274 277 279 280 282 283 284 285 285 285 282 282 281 282
269 269 268 269 269 268 268 267 265 264 264 265 266 265 264 264 263 262 262 261 261 261 261 261 261 261 262 262 262 262 262 262 263 263 264 264 264 264 264 264 265 265 265 266 266 267 269 271 273 274 277 280 281 283 283 284 284 285 285 283 282 283
267 266 266 266 266 266 266 265 264 262 263 264 264 263 263 262 261 260 260 260 260 260 260 260 260 260 261 261 262 262 262 262 262 262 262 263 263 263 263 263 264 264 264 265 266 267 269 271 272 273 276 279 280 281 282 283 283 283 284 284 283 284
265 264 264 263 264 264 264 263 263 263 263 262 263 262 262 261 260 259 259 259 259 260 260 259 259 260 260 261 261 261 262 262 262 262 262 262 262 262 262 262 263 263 264 264 265 266 268 269 271 273 275 277 278 278 279 280 280 282 283 282 282 282
263 262 262 261 262 263 262 262 262 262 262 262 262 261 261 260 259 259 259 259 259 259 259 259 260 260 260 260 260 260 260 261 261 261 260 260 261 261 261 261 262 262 262 263 264 265 266 267 269 270 272 274 277 278 279 279 279 278 279 279 280 280
261 261 261 260 262 262 261 261 261 262 262 261 261 260 259 259 259 259 258 259 259 258 259 259 259 260 259 260 260 260 261 260 260 260 260 262 262 261 261 260 261 262 262 263 263 263 264 265 267 269 275 275 278 278 278 278 278 278 278 280 281 280
261 260 260 260 261 261 261 261 261 261 261 261 260 260 259 258 258 258 258 258 258 258 259 259 259 259 259 259 259 259 260 263 266 265 262 262 265 268 269 269 264 264 265 264 265 265 264 265 267 273 275 276 278 279 280 281 281 281 280 280 282 281
260 259 259 260 261 260 260 260 260 260 260 260 260 260 259 258 258 258 257 258 258 258 258 258 258 259 259 259 259 259 259 259 261 266 268 268 267 268 269 270 271 271 271 268 266 268 272 273 274 275 275 276 277 278 279 280 280 281 282 282 280 278
259 259 259 260 260 259 259 259 259 259 260 260 260 260 259 258 257 257 257 257 257 258 258 258 258 258 258 259 259 259 259 259 258 259 265 267 268 268 269 269 270 271 271 271 270 268 267 270 272 273 274 274 275 276 277 279 280 281 282 282 282 278
259 259 259 259 259 258 259 258 259 259 259 260 260 259 258 258 257 257 256 257 257 257 258 258 258 258 258 258 258 258 259 258 258 257 258 261 266 267 268 268 269 269 270 270 271 271 270 270 271 273 274 274 275 276 276 277 278 279 281 282 280 278
259 259 258 258 258 258 258 258 258 259 260 260 260 259 258 257 257 257 257 257 257 257 257 257 258 258 258 259 259 258 258 259 259 258 258 258 258 260 263 266 267 268 268 269 269 269 270 270 271 272 273 274 275 275 276 277 275 278 279 279 278 278
258 258 258 258 258 258 258 258 259 260 260 260 259 258 258 257 257 257 258 258 258 257 257 258 258 258 258 258 258 258 258 258 259 259 258 258 257 257 258 258 260 264 267 265 266 268 270 270 271 272 273 274 275 276 277 278 274 273 274 275 277 278
257 257 258 258 258 258 258 258 259 260 260 259 259 258 257 257 257 257 257 258 258 258 258 258 258 259 259 259 259 259 259 259 259 258 258 259 259 258 258 259 260 260 265 268 269 270 270 271 272 273 273 273 275 276 277 273 273 273 274 275 278 278
Wind_Speed
9 9 9 9 9 9 8 7 7 7 7 8 8 8 8 8 7 8 7 8 7 7 9 9 9 9 8 8 8 7 7 7 7 6 6 6 7 7 7 7 7 7 7 6 7 7 7 7 8 8 8 8 9 9 9 10 10 11 12 12 12 12
6 6 7 7 7 6 6 5 5 7 8 8 8 7 7 7 6 5 6 6 6 6 6 6 7 7 8 8 9 9 9 9 9 8 7 7 6 6 6 6 6 7 8 7 7 7 7 7 8 8 8 8 9 9 9 9 11 12 13 11 11 10
2 3 1 2 2 1 2 2 3 4 4 4 4 4 5 6 6 5 5 5 6 7 8 7 6 8 8 9 8 8 7 7 7 8 7 7 7 7 7 7 7 7 7 7 7 7 7 7 7 7 8 9 9 9 10 10 11 13 12 12 13 11
1 1 1 1 1 1 1 2 1 2 2 2 3 3 5 6 7 7 7 6 6 6 7 7 7 8 8 9 8 8 7 7 7 7 8 7 7 7 7 7 6 7 7 7 7 7 7 8 8 8 7 8 9 10 8 9 11 12 13 12 14 13
2 2 2 2 3 3 3 3 3 4 5 5 6 8 9 9 8 8 7 7 7 7 6 6 6 7 7 7 7 8 8 8 8 7 8 8 8 9 8 8 8 8 7 8 8 8 8 7 8 7 8 9 9 10 9 9 11 12 12 13 14 14
1 1 2 3 3 4 5 5 6 6 7 7 7 9 9 9 9 9 9 9 9 9 8 8 6 5 6 6 6 7 7 6 6 7 7 8 8 9 8 9 9 8 8 8 8 8 8 8 8 8 8 9 9 10 11 10 11 12 13 13 13 13
5 5 5 5 6 6 7 7 7 7 7 7 7 7 8 8 8 9 9 9 10 10 9 9 8 8 8 7 6 6 6 6 7 7 8 8 8 8 9 8 8 8 8 7 8 9 9 9 9 9 9 8 8 10 11 11 11 11 13 14 14 13
6 7 8 7 7 7 7 7 7 8 8 9 8 8 8 8 7 8 8 8 9 9 10 9 9 9 8 8 7 7 7 6 6 6 6 7 8 8 7 8 8 8 9 9 9 9 10 9 9 9 10 10 9 9 10 10 11 12 12 12 13 13
6 6 7 7 8 8 7 7 8 7 8 8 9 8 8 9 9 9 9 8 8 8 8 9 9 9 9 9 8 7 7 8 8 7 7 6 7 7 7 7 7 7 8 9 8 8 9 9 9 9 9 9 10 11 11 10 11 12 11 12 12 12
4 5 5 6 6 6 6 7 7 7 7 7 7 7 6 6 7 8 9 9 8 8 8 8 8 8 8 8 9 9 9 8 7 8 8 8 7 6 7 7 8 8 7 8 8 8 8 8 8 9 9 9 10 10 10 11 11 12 13 13 13 13
5 5 5 5 6 6 7 6 6 6 6 7 7 7 6 7 7 8 8 9 9 9 8 8 8 7 7 8 8 9 9 9 9 9 8 8 9 8 8 7 7 8 8 8 8 8 7 7 7 6 7 8 10 10 10 11 11 12 12 13 13 14
6 6 6 7 7 7 7 7 7 6 7 7 7 7 7 7 8 9 9 9 9 9 9 10 9 9 8 8 8 9 10 10 9 9 10 12 10 9 9 10 10 9 8 8 8 7 6 6 6 8 14 13 10 9 9 10 11 11 12 13 13 14
6 6 6 6 7 7 7 7 7 7 7 7 7 7 7 7 8 9 9 10 10 9 9 9 9 9 9 9 8 8 8 11 9 9 9 9 9 12 12 11 10 10 9 9 8 8 7 6 6 11 12 14 17 13 10 10 11 11 12 13 14 14
6 6 7 7 7 7 7 6 6 7 8 8 8 7 6 6 8 9 9 10 10 10 10 10 10 11 9 7 7 8 8 9 9 9 10 11 11 10 10 13 13 12 10 9 10 9 8 7 9 12 13 14 15 14 11 9 10 11 12 13 14 13
7 7 7 7 7 7 7 7 7 7 7 7 7 7 7 8 8 9 10 10 10 11 10 11 10 9 9 7 7 7 8 9 11 10 10 10 9 11 13 13 13 14 14 12 11 10 10 10 10 12 15 15 15 16 14 9 10 11 12 13 14 14
6 7 8 8 8 8 7 7 7 8 7 7 6 7 7 8 8 9 10 10 10 10 10 11 10 11 11 9 8 8 10 10 10 10 9 9 9 10 10 11 14 14 13 12 12 12 11 11 13 14 15 16 17 17 15 9 11 11 12 14 14 14
8 9 9 9 9 8 7 7 7 7 7 7 8 8 10 10 11 10 10 11 12 11 10 10 10 11 11 10 9 9 11 12 11 11 8 7 9 10 11 12 13 12 13 12 12 12 13 12 17 18 18 17 17 17 15 9 10 10 11 13 14 15
10 10 10 8 7 7 7 8 8 8 8 8 9 10 9 10 10 13 11 10 11 10 12 10 11 11 11 10 7 9 12 13 13 13 9 7 8 9 9 11 12 13 14 14 14 13 14 14 18 17 18 18 18 18 10 9 10 10 11 12 13 14
12 10 8 7 8 8 8 8 8 8 8 9 8 9 10 11 11 12 12 11 12 12 12 12 11 12 11 10 10 12 13 13 15 13 7 9 10 11 11 12 13 13 13 14 14 14 14 14 17 19 18 18 19 13 8 9 9 10 12 13 13 13
10 10 9 10 10 9 9 9 9 9 8 10 10 10 11 11 12 12 12 13 12 13 11 10 11 12 12 12 13 13 12 12 12 13 8 9 12 13 14 12 13 14 13 14 14 14 14 16 18 22 20 21 20 15 10 9 10 11 12 12 13 12
9 10 10 10 12 12 11 10 9 9 9 10 12 11 11 11 13 13 12 14 13 12 12 11 11 13 13 13 13 13 15 15 14 12 9 10 11 12 13 12 13 15 14 14 15 19 19 16 18 23 24 25 22 16 10 10 9 11 12 12 12 12
9 10 11 11 12 12 11 9 8 8 10 12 12 11 11 12 13 13 14 15 15 12 10 11 13 15 15 15 15 14 14 13 12 12 11 11 11 12 12 12 14 17 16 15 15 15 16 17 17 20 27 25 25 22 13 9 9 11 13 12 11 12
8 9 11 10 10 10 9 8 9 10 11 12 12 12 13 13 14 14 14 14 14 14 14 13 13 15 16 15 15 15 15 14 13 14 15 14 13 14 13 16 16 16 17 17 18 18 18 17 18 21 28 27 27 26 20 11 12 12 13 12 12 11
9 10 9 9 10 10 8 8 10 11 12 12 13 13 14 14 14 15 15 15 16 14 15 15 16 16 16 16 15 16 17 15 14 14 16 14 14 17 17 16 15 15 16 16 19 20 20 21 27 22 28 31 29 27 27 16 13 14 13 13 12 12
9 9 10 9 10 9 8 9 11 11 11 13 15 14 14 14 15 16 16 16 16 17 18 18 18 17 15 16 17 17 18 17 16 17 15 17 17 19 21 20 18 19 19 17 15 16 18 19 19 27 24 30 31 29 27 27 20 22 16 13 14 14
8 10 10 9 9 8 8 9 12 13 14 16 14 14 13 13 13 15 15 15 16 17 17 16 18 17 16 17 17 17 19 20 18 17 16 16 15 17 19 16 16 16 17 18 17 16 16 18 18 22 29 27 33 31 30 28 28 26 17 14 14 13
10 11 12 10 9 10 8 8 11 14 16 15 12 13 12 13 15 15 16 16 17 17 16 17 16 16 16 16 15 17 17 18 16 16 16 15 17 16 17 17 15 16 17 17 18 17 17 18 17 18 21 30 29 31 30 29 29 27 26 18 14 15
8 10 12 13 9 10 9 8 8 13 15 14 12 13 13 14 16 16 17 17 16 16 16 17 18 16 15 16 14 15 15 16 15 15 15 14 15 16 16 17 16 16 17 18 17 18 17 17 16 17 17 18 22 22 28 30 28 27 26 23 17 19
9 11 12 13 10 8 8 9 9 10 13 14 13 14 14 14 15 19 19 16 17 16 15 17 15 15 15 14 13 13 13 14 14 14 15 14 15 16 16 16 16 16 16 17 17 17 17 17 17 16 15 15 15 15 15 16 16 21 22 17 15 17
10 12 13 12 10 9 9 9 10 11 12 12 13 13 14 16 18 17 18 18 16 16 15 15 19 19 15 15 13 15 13 13 14 14 15 14 14 15 16 16 16 17 16 16 16 17 17 17 16 17 16 16 14 13 12 11 11 11 10 11 12 12
10 11 11 12 11 11 11 11 11 11 11 13 13 14 16 17 18 17 19 18 16 15 14 14 15 15 15 15 15 13 14 14 13 16 17 15 14 16 17 16 18 17 16 16 17 18 18 18 17 15 16 18 21 17 10 6 6 6 8 11 15 10
10 12 12 12 11 11 12 12 11 11 13 14 13 14 15 17 18 18 17 15 15 15 14 14 14 14 15 15 15 17 14 18 25 20 18 19 23 31 33 28 22 19 17 18 18 17 18 18 17 24 30 29 28 28 29 24 21 17 12 13 18 13
11 12 12 11 10 11 12 13 14 15 14 12 13 13 15 17 17 16 15 15 14 15 15 15 15 15 14 15 16 15 17 16 14 24 29 30 29 30 32 32 35 36 35 27 19 18 35 37 37 37 35 34 32 32 32 31 28 26 23 21 13 10
11 11 12 11 11 12 13 14 15 14 14 13 12 12 14 16 16 16 16 15 15 16 16 15 15 15 15 15 14 16 15 16 17 16 20 26 28 29 30 31 33 34 34 35 33 28 20 27 33 35 34 33 33 32 31 29 28 27 27 25 23 12
9 11 11 11 12 14 14 15 15 13 13 13 13 13 15 15 15 17 17 17 17 16 16 15 14 14 14 15 15 15 15 15 15 17 16 15 22 27 29 30 31 32 32 33 33 34 32 31 32 35 36 36 36 35 33 32 32 29 28 27 19 12
10 11 12 13 14 14 14 15 15 14 14 14 14 14 13 14 14 15 16 16 17 17 15 15 14 14 14 14 14 15 15 15 16 16 16 17 15 15 19 23 27 28 30 30 31 31 31 30 30 31 31 32 32 34 35 33 27 31 34 30 17 12
12 12 12 13 13 14 14 15 15 14 15 15 14 13 14 14 15 14 18 25 21 15 15 14 14 14 14 14 14 14 15 15 15 16 16 15 17 16 17 16 15 19 25 22 22 26 30 30 30 31 30 31 30 30 31 31 21 20 18 19 17 14
11 13 12 11 12 12 14 16 15 14 14 13 12 13 14 14 15 14 13 14 16 15 13 14 14 14 14 14 14 14 15 15 15 16 15 16 15 16 17 15 14 13 18 29 28 30 29 29 29 28 28 27 29 30 33 20 16 15 15 16 13 12
Wind_Direction
23 19 18 16 18 14 14 6 9 20 24 25 28 25 20 15 12 8 16 17 16 13 11 8 7 5 6 7 11 11 7 4 353 339 328 316 308 302 297 292 286 279 270 258 249 242 237 235 233 228 226 220 226 225 230 227 228 233 232 228 222 226
16 10 3 4 4 7 360 350 353 14 16 16 22 23 19 16 17 9 16 14 13 13 13 12 8 3 7 7 11 10 7 2 355 348 343 329 315 306 301 295 289 286 282 272 260 252 244 238 232 227 227 226 228 229 229 225 220 230 233 233 226 226
354 330 317 284 270 268 282 298 359 11 9 14 11 14 5 11 9 9 14 13 12 12 13 8 3 5 8 8 14 12 4 360 354 350 339 326 324 320 314 306 302 296 286 276 267 259 252 246 242 232 226 227 231 231 232 231 225 226 230 232 233 226
294 245 259 261 257 275 326 331 354 1 15 15 357 5 15 7 5 7 3 5 2 7 12 11 8 8 5 6 3 6 357 355 352 348 339 339 327 330 320 317 311 305 299 290 280 270 256 250 245 239 234 234 232 230 228 233 235 235 233 229 232 227
272 275 304 322 343 351 357 2 6 5 7 10 11 11 10 7 0 359 357 357 1 3 2 5 9 9 10 5 359 360 352 350 347 346 343 342 340 338 337 324 319 311 304 298 293 285 277 266 257 246 238 237 236 236 233 229 232 235 237 235 234 231
248 249 11 2 9 6 5 7 10 9 10 11 9 8 5 2 357 354 349 350 351 353 358 3 1 3 4 4 356 354 348 340 339 339 340 338 337 338 335 333 325 319 310 304 297 290 284 278 268 260 250 241 239 241 241 237 233 234 237 239 239 236
8 11 12 11 8 7 2 2 4 3 4 9 7 5 2 358 351 351 345 344 344 342 347 350 355 357 355 351 344 343 340 339 341 339 336 337 333 330 328 326 329 324 318 308 302 298 292 286 280 273 264 254 246 245 244 243 242 239 239 240 241 239
352 356 358 358 1 3 359 358 358 355 355 356 358 355 355 354 351 347 344 340 340 337 337 339 339 343 349 347 344 336 333 330 330 334 332 333 327 323 323 319 320 318 313 308 300 296 296 294 288 281 276 271 264 256 248 246 246 248 246 244 243 243
333 336 340 342 343 346 348 348 351 351 351 348 348 348 345 345 345 344 342 336 335 332 331 333 332 329 330 332 334 332 329 328 326 322 322 321 316 313 311 312 311 309 305 301 295 290 288 290 290 289 283 277 273 269 261 253 252 252 250 249 249 245
285 295 307 316 318 325 328 334 335 340 338 338 335 335 336 333 337 334 333 332 330 328 329 328 323 319 317 322 322 320 318 320 322 320 315 312 308 304 305 305 303 300 298 294 293 286 280 276 276 276 279 279 278 273 268 263 259 257 254 254 251 249
275 287 292 297 306 308 315 316 317 318 324 323 326 325 331 331 330 329 327 328 326 328 328 324 320 314 313 319 317 313 312 313 314 313 311 309 307 303 301 295 290 293 292 286 283 285 280 272 263 263 265 269 271 273 271 266 262 261 262 259 255 252
283 279 284 287 291 301 303 307 305 309 309 309 312 317 321 333 330 328 326 323 322 322 325 323 319 315 315 316 312 315 311 307 307 309 314 313 307 304 305 305 298 288 281 284 281 275 274 267 261 249 251 253 258 264 266 267 266 264 265 264 262 258
284 285 284 288 292 293 297 295 298 297 294 293 299 303 313 324 323 320 321 318 317 318 316 317 312 310 310 309 312 313 314 310 306 306 304 303 304 309 309 304 301 299 294 289 283 284 279 268 262 258 252 248 253 257 259 260 261 260 259 260 261 260
280 282 282 284 284 284 284 285 286 288 284 289 294 297 304 307 304 306 304 305 309 309 311 309 310 306 299 299 300 305 310 306 300 298 302 306 305 305 307 306 302 299 293 290 287 280 274 276 272 266 268 266 256 253 255 258 258 257 255 255 256 258
280 279 279 275 271 270 268 271 274 273 278 286 291 294 293 292 294 296 297 298 299 299 299 301 302 301 298 292 290 294 301 301 295 291 292 294 299 302 302 300 301 301 298 293 286 287 289 285 276 278 277 272 267 263 259 258 255 253 254 253 254 255
281 281 280 278 274 269 270 265 268 271 274 277 282 287 283 282 281 282 284 287 286 285 287 289 289 288 288 288 294 296 295 297 291 287 287 290 295 291 291 294 295 293 290 290 294 293 288 282 285 280 276 275 272 270 268 259 256 254 254 254 252 253
287 291 294 298 303 304 296 294 294 300 305 309 309 308 299 290 284 275 273 278 279 279 279 279 278 278 278 277 281 288 290 293 295 286 278 282 286 287 290 292 293 291 290 288 286 286 286 283 282 283 276 274 276 276 274 266 262 257 253 253 252 251
294 296 299 310 320 317 322 318 322 320 315 317 307 299 292 287 285 283 278 279 277 275 273 273 277 276 275 268 266 277 285 291 291 287 282 284 279 277 278 281 282 287 288 286 283 282 281 281 278 276 277 276 275 278 273 267 264 262 258 256 254 251
295 300 319 336 338 338 333 332 331 322 314 305 296 294 290 288 284 282 280 284 283 284 283 280 279 278 276 265 267 275 280 284 287 282 277 288 287 284 282 282 283 281 281 282 281 279 278 278 276 273 271 271 272 274 270 271 269 265 263 260 258 254
338 3 357 339 335 338 337 332 324 314 309 305 303 301 296 294 292 292 292 290 290 290 285 281 282 281 278 272 271 277 282 283 283 277 279 281 284 286 284 284 283 281 278 277 278 277 280 280 278 276 272 269 268 261 259 262 264 264 264 266 260 256
354 340 340 338 332 331 334 333 326 318 313 311 305 302 300 301 300 301 300 297 295 292 291 291 291 288 287 281 277 283 286 284 281 274 278 276 276 275 281 282 281 281 280 278 276 278 277 276 277 277 275 270 265 259 254 255 255 256 258 262 263 260
347 334 333 332 326 334 339 337 329 318 316 312 311 305 303 304 305 305 304 300 294 292 292 295 295 292 290 287 286 288 286 284 281 276 276 276 274 274 276 277 275 279 279 278 279 280 278 278 277 275 272 267 263 255 250 248 250 251 256 255 256 259
326 324 325 326 335 342 344 340 330 318 316 313 309 307 308 309 308 304 300 296 293 292 291 292 294 297 294 292 291 290 286 281 277 279 279 278 277 273 271 273 274 275 278 277 276 274 271 269 270 271 270 266 261 253 245 245 243 248 252 256 254 253
323 325 331 341 350 343 338 340 325 317 315 310 303 307 308 308 308 307 303 299 297 300 302 303 300 296 293 291 289 286 282 279 276 275 278 274 272 271 272 272 273 273 270 272 274 273 270 268 265 266 268 265 261 253 243 239 243 238 248 250 252 252
326 329 335 338 336 335 335 339 319 308 307 300 305 311 311 315 313 310 307 304 305 306 305 302 301 299 299 295 292 289 287 286 284 280 278 276 274 271 271 269 269 271 267 268 265 267 269 269 267 263 262 261 256 249 244 238 236 239 239 242 248 247
330 324 323 331 328 332 335 330 316 310 308 304 313 314 313 312 311 309 305 303 302 303 302 302 301 299 297 295 293 290 286 285 283 280 277 276 273 274 272 269 264 263 263 267 265 258 260 266 267 264 261 259 256 253 248 243 239 236 236 234 242 246
326 323 316 321 327 320 321 322 314 307 301 303 313 312 313 312 310 307 301 300 300 298 298 298 295 295 293 289 288 285 283 279 277 277 275 272 270 268 267 267 266 263 265 267 265 266 266 266 265 264 262 260 256 253 248 243 240 239 237 239 240 242
320 312 308 311 324 316 316 312 308 301 298 307 310 309 308 308 305 300 297 297 293 293 295 294 292 287 284 285 284 280 279 281 281 278 277 274 271 270 268 268 269 268 268 268 267 268 269 270 269 265 260 255 255 254 250 247 243 240 238 237 239 240
315 311 311 308 317 314 310 310 301 294 299 305 305 305 303 298 298 297 296 294 295 294 295 292 292 292 289 286 285 281 282 282 281 280 279 277 277 274 271 271 271 271 271 272 273 274 273 270 268 265 260 257 256 254 251 246 244 240 240 239 241 245
309 308 311 308 312 310 304 298 296 297 300 299 301 301 300 298 296 295 295 295 294 293 293 290 291 290 289 288 286 286 285 281 278 278 276 278 279 279 278 276 273 273 273 275 276 278 277 274 273 269 267 267 264 262 257 246 236 228 222 231 234 236
305 302 304 301 304 303 300 296 295 300 302 303 304 304 302 300 298 298 298 297 294 291 291 289 289 289 288 289 286 280 279 280 280 277 276 268 266 267 272 273 272 272 274 275 276 277 276 274 273 276 285 283 279 276 276 254 239 227 226 229 233 236
301 301 300 297 300 298 299 298 296 302 305 304 303 302 299 301 302 299 295 294 293 292 291 290 290 290 288 287 287 287 280 273 274 276 277 279 275 274 273 273 273 272 269 269 263 259 266 272 273 278 278 277 277 275 271 267 262 255 250 241 239 239
302 298 294 296 301 302 302 302 304 304 302 299 297 300 301 301 299 297 295 294 292 292 293 292 290 287 285 286 286 285 286 287 279 275 277 278 279 278 278 278 277 278 277 274 272 264 267 268 269 269 269 271 271 270 268 269 270 269 265 257 253 244
303 301 300 303 303 299 298 299 299 300 299 297 299 298 297 297 297 295 295 293 292 292 290 287 286 287 285 285 284 285 286 287 288 284 275 278 281 282 282 283 283 283 283 284 285 287 286 284 284 283 282 282 281 281 280 277 270 266 264 262 254 244
300 299 299 297 295 295 294 297 296 297 297 297 297 297 294 292 292 292 291 291 290 288 287 286 285 284 285 285 285 284 284 285 287 289 292 283 281 284 285 284 284 284 285 285 285 283 282 284 284 283 279 274 273 273 273 272 273 273 271 263 253 240
293 290 289 290 290 292 294 294 293 296 297 299 298 295 289 287 285 285 288 288 288 288 286 284 282 283 283 281 284 285 286 285 285 287 289 294 295 290 283 281 282 284 286 287 287 287 287 286 284 282 279 276 271 267 265 265 266 267 268 268 258 236
289 288 284 283 286 290 291 291 296 298 297 296 294 292 290 288 286 285 283 283 284 285 283 282 283 283 283 285 285 285 284 283 285 285 287 288 291 291 293 293 287 284 285 285 286 286 287 286 284 282 278 274 270 267 265 261 256 253 251 255 249 233
286 284 282 278 284 288 294 295 297 300 298 291 290 295 295 292 289 288 287 288 287 285 282 283 284 283 284 284 282 282 281 283 284 284 283 282 282 285 287 288 286 286 288 290 289 287 288 290 291 290 287 283 278 273 266 256 241 240 240 241 234 220